This demonstration page uses our WeatherBlox Daily Observations layout. Learn more.

Left ArrowRight Arrow

Hourly Observations for October 15, 2015

Temp ( °F °C ) Dew Point ( °F °C ) Humidity (%) Winds ( mph kmh ) Pressure ( in mb ) Visibility ( mi km ) Precip ( " mm )
12:53 am 00:53 Clear 63 17.2 40 4.4 43 43 E 8 13 29.99 1016 10 16 0.00 0.00
1:53 am 01:53 Clear 63 17.2 40 4.4 43 43 E 9 15 29.99 1016 10 16 0.00 0.00
2:53 am 02:53 Clear 60 15.6 41 5 50 50 E 6 9 29.99 1016 10 16 0.00 0.00
3:53 am 03:53 Clear 61 16.1 41 5 48 48 E 8 13 29.97 1015 10 16 0.00 0.00
4:53 am 04:53 Clear 60 15.6 41 5 50 50 E 9 15 29.96 1015 10 16 0.00 0.00
5:53 am 05:53 Clear 59 15 41 5 51 51 ESE 6 9 29.96 1015 10 16 0.00 0.00
6:53 am 06:53 Mostly Clear 58 14.4 41 5 53 53 E 8 13 29.97 1015 10 16 0.00 0.00
7:53 am 07:53 Mostly Sunny 58 14.4 42 5.6 56 56 ENE 7 11 29.98 1015 10 16 0.00 0.00
8:53 am 08:53 Mostly Sunny 62 16.7 42 5.6 48 48 ENE 10 17 30.00 1016 10 16 0.00 0.00
9:53 am 09:53 Partly Cloudy 67 19.4 42 5.6 41 41 ENE 8 13 30.03 1017 10 16 0.00 0.00
10:53 am 10:53 Partly Cloudy 71 21.7 44 6.7 38 38 NE 8 13 30.04 1017 10 16 0.00 0.00
11:53 am 11:53 Mostly Sunny 78 25.6 45 7.2 31 31 NE 12 19 30.03 1017 10 16 0.00 0.00
12:53 pm 12:53 Mostly Sunny 84 28.9 39 3.9 20 20 NE 23 37 30.02 1017 10 16 0.00 0.00
1:53 pm 13:53 Mostly Sunny 85 29.4 38 3.3 19 19 ENE 23 37 30.02 1017 10 16 0.00 0.00
2:53 pm 14:53 Mostly Sunny 85 29.4 37 2.8 18 18 NE 22 35 30.03 1017 10 16 0.00 0.00
3:53 pm 15:53 Mostly Sunny 83 28.3 36 2.2 19 19 NE 23 37 30.04 1017 10 16 0.00 0.00
4:53 pm 16:53 Mostly Sunny 82 27.8 37 2.8 20 20 NE 24 39 30.06 1018 10 16 0.00 0.00
5:53 pm 17:53 Mostly Sunny 79 26.1 37 2.8 22 22 ENE 23 37 30.10 1019 10 16 0.00 0.00
6:53 pm 18:53 Mostly Sunny 75 23.9 35 1.7 23 23 NE 21 33 30.14 1021 10 16 0.00 0.00
7:53 pm 19:53 Mostly Clear 72 22.2 36 2.2 27 27 NNE 15 24 30.18 1022 10 16 0.00 0.00
8:53 pm 20:53 Mostly Cloudy 71 21.7 32 0 24 24 NE 22 35 30.22 1023 10 16 0.00 0.00
9:53 pm 21:53 Mostly Cloudy 67 19.4 31 -0.6 26 26 NE 20 31 30.26 1025 10 16 0.00 0.00
10:53 pm 22:53 Mostly Cloudy 65 18.3 31 -0.6 28 28 NNE 15 24 30.29 1026 10 16 0.00 0.00
11:53 pm 23:53 Mostly Cloudy 64 17.8 31 -0.6 29 29 NE 13 20 30.31 1027 10 16 0.00 0.00

Powered by AerisWeather